User: anonymous   Login
Location: Sternwarte Stuttgart
(48.7670°N, 9.1830°E)
Time: 22:56:49
(UTC+02:00)
Language:

ALOS - Orbit

View from above orbital plane
View from above orbital plane
View from above satellite
View from above satellite

Ground track
Ground track

The orbit data is extracted from the following two-line orbital elements,

1 28931U 06002A   19288.55506369  .00000100  00000-0  28321-4 0  9999
2 28931  97.8265 281.6599 0001628 102.8722 257.2661 14.62645275731755
Epoch (UTC): 15 October 2019 13:19:17
Eccentricity: 0.0001628
inclination: 97.8265°
perigee height: 683 km
apogee height: 686 km
right ascension of ascending node: 281.6599°
argument of perigee: 102.8722°
revolutions per day: 14.62645275
mean anomaly at epoch: 257.2661°
orbit number at epoch: 73175

The dashed part of the orbit path shows where the satellite is in the earth's shadow,  

DLR